[[{"header":{"parameterUnit":"m.s-1","parameterCategory":2,"la1":30.2991,"la2":30.254,"lo1":-89.0895,"lo2":-89.0444,"dy":0.0017,"dx":0.0017,"nx":28,"ny":28,"refTime":"2024-07-06T03:00:00:Z","depth":"0","parameterNumber":2,"parameterNumberName":"U-component_of_CURRENTS"},"data":[0,0,0,0,0,0,0,0,0,0,0,0,0,0,0,0,0,0,0,0,0,0,0,0,0,0,0,0,0,0,0,0,0,0,0,0,0,0,0,0,0,0,0,0,0,0,0,0,0,0,0,0,0,0,0,0,0,0,0.3989,0.3989,0,0.4062,0.4063,0.4064,0.4092,0.4092,0.4091,0.4091,0.4158,0.4161,0.4163,0,0,0,0,0,0,0,0,0,0,0,0,0,0.3964,0.3964,0.3989,0.3989,0.399,0.4062,0.4063,0.4064,0.4093,0.4092,0.4091,0.4091,0.4158,0.416,0.4163,0,0,0,0,0,0,0,0,0,0,0,0,0,0.4003,0.3964,0.3989,0.401,0.4012,0.4061,0.4063,0.4065,0.4093,0.4092,0.4091,0.409,0.4157,0.416,0.4163,0.4201,0,0,0.4174,0.4176,0,0,0,0,0,0,0,0,0.4001,0.4004,0.4006,0.4008,0.4011,0.4064,0.4079,0.4109,0.4093,0.4066,0.4091,0.409,0.4124,0.413,0.4152,0.4205,0.4208,0.4174,0.4176,0.4178,0.4179,0,0,0,0,0,0,0,0.3998,0.4002,0.4022,0.4007,0.401,0.4046,0.4051,0.4086,0.4102,0.4068,0.407,0.4072,0.4126,0.4148,0.4153,0.4209,0.4174,0.4177,0.4179,0.4181,0.4317,0.4318,0,0,0,0,0,0,0.3977,0.3999,0.4019,0.4023,0.3999,0.4047,0.4052,0.4051,0.4102,0.4108,0.4073,0.4073,0.4143,0.4149,0.4156,0.4246,0.4178,0.4181,0.4183,0.4315,0.4317,0.4319,0,0,0,0,0,0,0.3976,0.3978,0.4016,0.401,0.4017,0.4047,0.4047,0.4053,0.4075,0.4104,0.4111,0.4088,0.4142,0.4151,0.42,0.4247,0.4183,0.4186,0.4313,0.4316,0.4318,0.44,0,0,0,0,0,0,0.3975,0.3978,0.3977,0.4008,0.4016,0.4051,0.4047,0.4055,0.4076,0.4077,0.412,0.4125,0.4142,0.4195,0.4204,0.4251,0.4189,0.4311,0.4314,0.4317,0.4395,0.4404,0.4413,0,0,0,0,0,0.3974,0.3984,0.3977,0.398,0.4012,0.4051,0.406,0.4081,0.4077,0.4097,0.4128,0.4124,0.4219,0.42,0.4209,0.4258,0.431,0.4313,0.4317,0.4391,0.4403,0.4412,0,0,0,0,0,0,0.3972,0.3988,0.3981,0.3993,0.4017,0.4054,0.4077,0.4084,0.4125,0.4125,0.4149,0.4158,0.4222,0.4222,0.42,0.4303,0.4262,0.4268,0.4315,0.4326,0.4335,0.4414,0.4191,0,0,0,0,0,0.3968,0.3984,0.3998,0.401,0.402,0.4046,0.4065,0.4076,0.4111,0.4128,0.4158,0.4193,0.4245,0.4268,0.4306,0.4362,0.4438,0.4396,0.4405,0.4413,0.4483,0.462,0.4649,0.433,0.433,0.433,0,0,0.3971,0.3982,0.399,0.4012,0.4033,0.4078,0.4058,0.4088,0.4141,0.4129,0.421,0.4227,0.4266,0.4338,0.4365,0.4343,0.454,0.4417,0.4424,0.4491,0.4627,0.4659,0.4687,0.4332,0.4332,0.4331,0,0,0.4002,0.3993,0.4022,0.4048,0.4075,0.4098,0.4105,0.4141,0.4172,0.4231,0.4252,0.4313,0.4355,0.4428,0.4461,0.4543,0.4583,0.4518,0.4634,0.4764,0.4793,0.482,0.4949,0.4987,0.4521,0.4521,0.4521,0,0.4007,0.4039,0.4038,0.4081,0.4117,0.411,0.4165,0.4204,0.4255,0.4309,0.4261,0.4399,0.4422,0.4564,0.4599,0.4573,0.4645,0.4588,0.4781,0.4809,0.4835,0.4962,0.5002,0.4525,0.4525,0.4524,0.4524,0,0.4065,0.4096,0.4119,0.4175,0.4215,0.4254,0.43,0.4348,0.4363,0.4409,0.4521,0.4553,0.4648,0.4646,0.4659,0.4847,0.4839,0.4778,0.4764,0.4873,0.4998,0.5039,0.4531,0.453,0.4528,0.4527,0,0,0.407,0.4144,0.4154,0.421,0.4265,0.4317,0.4405,0.4505,0.4599,0.4623,0.4762,0.4841,0.4854,0.4898,0.4903,0.5019,0.5255,0.4989,0.4994,0.5138,0.5562,0.5432,0.5464,0.522,0.5227,0.5233,0.5574,0,0.4119,0.422,0.4244,0.4363,0.4426,0.4466,0.4566,0.4658,0.4717,0.4847,0.4899,0.5016,0.4946,0.5001,0.5109,0.5229,0.5368,0.5171,0.5421,0.543,0.5317,0.551,0.5203,0.5469,0.5614,0.5621,0.5625,0,0.4172,0.4239,0.4351,0.449,0.4522,0.4596,0.4767,0.4853,0.5014,0.5066,0.517,0.5206,0.5402,0.5299,0.5585,0.5457,0.5553,0.5619,0.5631,0.5528,0.5378,0.5384,0.5539,0.5352,0.5689,0.5684,0.5679,0,0.4211,0.4324,0.4422,0.4465,0.4609,0.4689,0.4773,0.4926,0.5043,0.5224,0.5335,0.5486,0.5617,0.574,0.5857,0.5755,0.6166,0.6024,0.6006,0.5997,0.5802,0.5762,0.5829,0.6276,0.6275,0.6274,0.6273,0,0.4268,0.436,0.4449,0.4518,0.4673,0.4746,0.4925,0.5031,0.5208,0.5379,0.5457,0.5617,0.5743,0.5942,0.5995,0.6152,0.628,0.612,0.6108,0.5814,0.5773,0.5648,0.5563,0.6287,0.6284,0.6282,0.6279,0,0.4329,0.437,0.4516,0.4657,0.4701,0.4827,0.5013,0.514,0.53,0.553,0.5606,0.5824,0.6048,0.6165,0.6414,0.6353,0.6307,0.6511,0.6157,0.6095,0.5788,0.5718,0.5715,0.5559,0.6538,0.6538,0.6537,0,0.4376,0.4443,0.4612,0.4693,0.4762,0.4919,0.502,0.5178,0.5299,0.5637,0.5751,0.6044,0.6181,0.648,0.6455,0.6555,0.635,0.6318,0.6053,0.5818,0.5735,0.5532,0.5386,0.5841,0.5834,0.5829,0.5825,0,0.4488,0.454,0.466,0.4784,0.4897,0.5019,0.516,0.5262,0.5457,0.5628,0.5864,0.6009,0.6271,0.6188,0.6303,0.6306,0.5959,0.6211,0.6075,0.5322,0.501,0.4832,0.5581,0.5779,0.5784,0.5787,0.579,0.5792,0.4583,0.4664,0.4767,0.4874,0.4982,0.5043,0.5062,0.5201,0.5336,0.547,0.5766,0.5819,0.5876,0.5945,0.5935,0.5657,0.5701,0.5411,0.5399,0.5258,0.4934,0.559,0.5678,0.5681,0.5685,0.5688,0.569,0,0.464,0.4694,0.4823,0.4899,0.4916,0.4983,0.5073,0.5015,0.5034,0.5231,0.5348,0.5312,0.5222,0.5219,0.506,0.4863,0.4649,0.4716,0.4355,0.429,0.4977,0.4762,0.4522,0.4522,0.4522,0.4522,0.4523,0.4523,0.4695,0.4748,0.4758,0.4746,0.4768,0.4667,0.464,0.4606,0.465,0.4565,0.4477,0.4565,0.4671,0.4618,0.4374,0.4269,0.3957,0.3761,0.3837,0.4279,0.434,0.4398,0.4176,0.3816,0.3815,0.2915,0.2908,0.2903]},{"header":{"parameterUnit":"m.s-1","parameterCategory":2,"la1":30.2991,"la2":30.254,"lo1":-89.0895,"lo2":-89.0444,"dy":0.0017,"dx":0.0017,"nx":28,"ny":28,"refTime":"2024-07-06T03:00:00:Z","depth":"0","parameterNumber":3,"parameterNumberName":"V-component_of_CURRENTS"},"data":[0,0,0,0,0,0,0,0,0,0,0,0,0,0,0,0,0,0,0,0,0,0,0,0,0,0,0,0,0,0,0,0,0,0,0,0,0,0,0,0,0,0,0,0,0,0,0,0,0,0,0,0,0,0,0,0,0,0,0.0161,0.0161,0,0.0099,0.0098,0.0097,0.0043,0.0043,0.0043,0.0042,-0.0038,-0.004,-0.0042,0,0,0,0,0,0,0,0,0,0,0,0,0,0.0172,0.0173,0.0161,0.0161,0.016,0.0099,0.0098,0.0097,0.0043,0.0043,0.0043,0.0042,-0.0038,-0.004,-0.0042,0,0,0,0,0,0,0,0,0,0,0,0,0,0.0142,0.0173,0.0161,0.0129,0.0125,0.01,0.0098,0.0097,0.0043,0.0043,0.0042,0.0042,-0.0037,-0.004,-0.0042,-0.005,0,0,-0.0051,-0.0052,0,0,0,0,0,0,0,0,0.0144,0.0141,0.0134,0.0131,0.0127,0.0081,0.0073,0.0048,0.0044,0.0071,0.0042,0.0042,0.0002,-0.0004,-0.0018,-0.0054,-0.0057,-0.0051,-0.0053,-0.0054,-0.0055,0,0,0,0,0,0,0,0.0146,0.0143,0.0133,0.0134,0.0129,0.0096,0.0091,0.0067,0.0037,0.0069,0.0065,0.0064,-0.0,-0.0016,-0.0021,-0.0058,-0.0051,-0.0053,-0.0055,-0.0056,-0.0105,-0.0105,0,0,0,0,0,0,0.0164,0.0146,0.0136,0.0132,0.0138,0.0097,0.0091,0.0094,0.0038,0.003,0.0064,0.0062,-0.0011,-0.0017,-0.0024,-0.0007,-0.0054,-0.0056,-0.0058,-0.0106,-0.0105,-0.0105,0,0,0,0,0,0,0.0164,0.0164,0.0138,0.0139,0.0134,0.0098,0.0101,0.0093,0.0083,0.0035,0.0026,0.0064,-0.0011,-0.002,-0.0035,-0.0012,-0.0058,-0.006,-0.0106,-0.0105,-0.0105,0.0007,0,0,0,0,0,0,0.0165,0.0164,0.017,0.0141,0.0135,0.0138,0.0101,0.0092,0.0084,0.008,0.0032,0.0023,-0.0012,-0.0031,-0.0038,-0.0017,-0.0062,-0.0106,-0.0106,-0.0105,0.0003,0.0012,0.0019,0,0,0,0,0,0.0166,0.0184,0.0171,0.017,0.0145,0.014,0.0134,0.0103,0.0085,0.009,0.0055,0.0025,-0.0032,-0.0032,-0.0041,-0.002,-0.0107,-0.0106,-0.0105,-0.0,0.001,0.0019,0,0,0,0,0,0,0.019,0.018,0.0165,0.0178,0.0166,0.0132,0.0133,0.0113,0.0089,0.0082,0.0034,0.0024,0.0014,-0.002,-0.0019,-0.0035,-0.0076,-0.0077,0.0007,0.0016,0.0024,0.009,-0.0065,0,0,0,0,0,0.02,0.0214,0.0193,0.0205,0.02,0.0167,0.016,0.0141,0.0117,0.0105,0.0074,0.0036,0.0009,0.0001,-0.0034,-0.0033,-0.003,-0.003,-0.0022,-0.0014,0.0032,0.0049,0.0064,-0.0102,-0.0102,-0.0102,0,0,0.0213,0.021,0.0216,0.0211,0.0194,0.0209,0.0161,0.0159,0.0175,0.0101,0.0109,0.0061,0.0012,0.0007,0.0001,-0.0014,0.0031,-0.0013,-0.0006,0.0036,0.0052,0.0068,0.0083,-0.0101,-0.0102,-0.0102,0,0,0.0259,0.0242,0.0272,0.0268,0.0258,0.024,0.0247,0.022,0.021,0.0205,0.0157,0.0138,0.0088,0.0074,0.0056,0.009,0.0066,0.006,0.0166,0.0182,0.0197,0.021,0.0233,0.0248,0.0072,0.0072,0.0073,0,0.0273,0.0313,0.0279,0.0307,0.0323,0.0265,0.0307,0.0285,0.0258,0.0277,0.0221,0.0189,0.0129,0.0163,0.0161,0.0114,0.0121,0.0137,0.0197,0.021,0.0222,0.0242,0.0257,0.0078,0.0077,0.0077,0.0076,0,0.0343,0.0374,0.0391,0.0414,0.0421,0.0445,0.042,0.0423,0.0395,0.0383,0.0397,0.0321,0.0319,0.0276,0.0224,0.0282,0.0258,0.0201,0.0186,0.0247,0.0262,0.0276,0.0086,0.0084,0.0082,0.0081,0,0,0.039,0.0435,0.0444,0.0491,0.0486,0.0511,0.0535,0.0567,0.0615,0.0559,0.0634,0.0553,0.0523,0.0503,0.0436,0.0438,0.0494,0.0365,0.0363,0.0412,0.0548,0.0454,0.0459,0.045,0.0453,0.0456,0.0525,0,0.0463,0.0559,0.0555,0.0652,0.0706,0.0678,0.072,0.0734,0.0723,0.0768,0.071,0.0729,0.0606,0.061,0.0596,0.0523,0.0537,0.0483,0.0462,0.0463,0.0391,0.0474,0.0433,0.0485,0.0538,0.054,0.0542,0,0.0546,0.0607,0.0717,0.0813,0.0834,0.0877,0.0963,0.0989,0.1016,0.1011,0.1021,0.0967,0.0974,0.0843,0.0802,0.0775,0.0689,0.0619,0.0619,0.0513,0.0394,0.0429,0.0507,0.0257,0.0562,0.056,0.0559,0,0.0634,0.0732,0.0837,0.0862,0.0939,0.1,0.104,0.1078,0.113,0.118,0.1233,0.1207,0.1224,0.1118,0.0954,0.0892,0.0906,0.0795,0.0642,0.0635,0.059,0.0573,0.0449,0.0791,0.0791,0.0791,0.0791,0,0.073,0.0818,0.0893,0.0951,0.1086,0.1108,0.1239,0.1267,0.1338,0.1448,0.1375,0.147,0.1294,0.1258,0.1073,0.0921,0.1003,0.0707,0.0661,0.0622,0.0607,0.0376,0.025,0.0793,0.0793,0.0792,0.0792,0,0.0811,0.0855,0.0984,0.1092,0.1131,0.123,0.1349,0.144,0.1498,0.1645,0.1678,0.17,0.1666,0.1472,0.1328,0.1094,0.0788,0.0855,0.0822,0.0769,0.0329,0.0212,0.0079,-0.0021,0.0699,0.0697,0.0696,0,0.086,0.0933,0.1074,0.1148,0.1201,0.1334,0.1422,0.1505,0.161,0.1801,0.1896,0.1929,0.1994,0.1742,0.1352,0.105,0.0802,0.0756,0.0603,0.0339,0.0177,0.0073,-0.0008,0.0596,0.0594,0.0592,0.0591,0,0.0948,0.0994,0.1091,0.1235,0.1349,0.1485,0.163,0.1742,0.1879,0.2049,0.2282,0.237,0.2138,0.184,0.1373,0.1107,0.0551,0.0705,0.0458,0.0124,-0.0014,-0.0144,0.0514,0.0575,0.0577,0.0578,0.0579,0.0579,0.1,0.1079,0.1192,0.133,0.146,0.1634,0.1771,0.1963,0.2197,0.2497,0.256,0.2757,0.2238,0.1615,0.1235,0.0421,0.0452,0.014,0.0039,-0.0027,-0.0188,0.043,0.04,0.04,0.0401,0.0401,0.0401,0,0.1056,0.1144,0.1274,0.1451,0.1601,0.1662,0.1902,0.2079,0.24,0.2707,0.2945,0.2781,0.2153,0.1466,0.038,-0.0156,-0.0334,-0.0444,-0.0591,-0.0628,-0.0048,-0.0124,-0.0301,-0.0301,-0.0301,-0.0301,-0.03,-0.03,0.1091,0.1212,0.128,0.1528,0.1662,0.1884,0.2035,0.2338,0.2595,0.2975,0.3106,0.3158,0.2545,0.074,-0.0504,-0.0779,-0.1087,-0.118,-0.1309,-0.0939,-0.0892,-0.0848,-0.0951,-0.1299,-0.13,-0.1855,-0.1861,-0.1865]}],[{"header":{"parameterUnit":"m.s-1","parameterCategory":2,"la1":30.2991,"la2":30.254,"lo1":-89.0895,"lo2":-89.0444,"dy":0.0017,"dx":0.0017,"nx":28,"ny":28,"refTime":"2024-07-06T03:00:00:Z","depth":"2","parameterNumber":2,"parameterNumberName":"U-component_of_CURRENTS"},"data":[0,0,0,0,0,0,0,0,0,0,0,0,0,0,0,0,0,0,0,0,0,0,0,0,0,0,0,0,0,0,0,0,0,0,0,0,0,0,0,0,0,0,0,0,0,0,0,0,0,0,0,0,0,0,0,0,0,0,0.3178,0.3179,0,0.3259,0.326,0.3261,0.3291,0.3291,0.3291,0.3291,0.3315,0.3315,0.3316,0,0,0,0,0,0,0,0,0,0,0,0,0,0.3065,0.3066,0.3178,0.3179,0.318,0.3259,0.326,0.3261,0.3291,0.3291,0.3291,0.3291,0.3314,0.3315,0.3316,0,0,0,0,0,0,0,0,0,0,0,0,0,0.3124,0.3067,0.3177,0.3207,0.3211,0.3259,0.326,0.3261,0.3291,0.3291,0.3291,0.3291,0.3314,0.3315,0.3316,0.332,0,0,0.3319,0.3319,0,0,0,0,0,0,0,0,0.312,0.3128,0.3202,0.3205,0.321,0.3268,0.3229,0.3279,0.3291,0.3258,0.3291,0.3292,0.3296,0.3298,0.331,0.3322,0.3323,0.3319,0.3319,0.332,0.332,0,0,0,0,0,0,0,0.3116,0.3124,0.3207,0.3203,0.3208,0.3223,0.323,0.3239,0.3272,0.3261,0.3264,0.3278,0.3297,0.3309,0.331,0.3323,0.3319,0.3319,0.332,0.332,0.3498,0.3502,0,0,0,0,0,0,0.3112,0.3121,0.3204,0.321,0.3168,0.3225,0.3233,0.3247,0.3273,0.3279,0.3278,0.3279,0.3307,0.3309,0.3311,0.3402,0.332,0.332,0.3321,0.3494,0.3499,0.3504,0,0,0,0,0,0,0.3109,0.3118,0.3201,0.3169,0.3181,0.3227,0.3241,0.3248,0.3281,0.3287,0.3291,0.3305,0.3307,0.331,0.336,0.3399,0.3321,0.3322,0.3489,0.3496,0.3501,0.3528,0,0,0,0,0,0,0.3105,0.3117,0.3122,0.3169,0.3183,0.3242,0.3242,0.325,0.3289,0.3292,0.3312,0.3313,0.3308,0.336,0.3361,0.3399,0.3322,0.3484,0.3492,0.3499,0.3522,0.3535,0.3545,0,0,0,0,0,0.3101,0.3117,0.3122,0.3132,0.319,0.3243,0.3252,0.3282,0.3291,0.331,0.3342,0.3313,0.3412,0.3363,0.3364,0.3403,0.348,0.349,0.3499,0.3517,0.3532,0.3545,0,0,0,0,0,0,0.3088,0.3123,0.3129,0.3159,0.3201,0.325,0.3275,0.3295,0.3335,0.3344,0.3347,0.3351,0.3414,0.3421,0.3367,0.349,0.3449,0.346,0.3463,0.3477,0.3489,0.355,0.3323,0,0,0,0,0,0.3083,0.3102,0.3141,0.3175,0.3191,0.3235,0.326,0.3285,0.3328,0.3347,0.3372,0.3413,0.3453,0.3473,0.3506,0.3556,0.3593,0.3597,0.3608,0.3618,0.3677,0.3768,0.3793,0.3535,0.3535,0.3534,0,0,0.309,0.3116,0.3128,0.3173,0.3208,0.3249,0.3251,0.3304,0.3352,0.3341,0.342,0.3445,0.3479,0.3544,0.3575,0.3552,0.3706,0.363,0.3636,0.3693,0.3781,0.3805,0.3827,0.3541,0.354,0.3539,0,0,0.3126,0.3138,0.3162,0.3199,0.3253,0.3275,0.3294,0.3354,0.339,0.3454,0.3479,0.3545,0.3587,0.3641,0.3665,0.377,0.3762,0.3778,0.3879,0.3964,0.3986,0.4005,0.4044,0.4067,0.3784,0.3784,0.3784,0,0.3126,0.3175,0.3183,0.3228,0.3264,0.329,0.3336,0.3379,0.3457,0.3514,0.3487,0.3631,0.3642,0.3756,0.3809,0.3793,0.3834,0.38,0.3976,0.3996,0.4015,0.4051,0.4076,0.3787,0.3786,0.3786,0.3786,0,0.3187,0.3228,0.3257,0.3309,0.334,0.3396,0.3441,0.3507,0.354,0.3592,0.371,0.3741,0.3834,0.3848,0.386,0.4019,0.3998,0.3966,0.3924,0.4042,0.4073,0.4098,0.379,0.3789,0.3789,0.3788,0,0,0.3169,0.3272,0.3281,0.3335,0.3391,0.3435,0.3517,0.3611,0.3696,0.376,0.3875,0.3965,0.3996,0.4036,0.4053,0.415,0.4292,0.414,0.4143,0.4153,0.447,0.4341,0.4355,0.4288,0.4294,0.4298,0.4419,0,0.3213,0.3305,0.3342,0.3445,0.3492,0.3553,0.3625,0.3717,0.3782,0.39,0.3972,0.4078,0.4055,0.4112,0.42,0.4289,0.4371,0.4263,0.4383,0.4387,0.4235,0.4385,0.4029,0.41,0.4444,0.4448,0.4451,0,0.3251,0.3309,0.3397,0.3528,0.3554,0.3622,0.3757,0.3829,0.3981,0.404,0.4154,0.4207,0.4376,0.4318,0.4517,0.4452,0.4493,0.4537,0.454,0.4446,0.4308,0.4052,0.4132,0.4493,0.4489,0.4486,0.4484,0,0.3227,0.3357,0.343,0.3473,0.3601,0.3685,0.376,0.3888,0.3961,0.4155,0.4236,0.4389,0.4491,0.4587,0.4675,0.4623,0.4874,0.4778,0.4691,0.4679,0.442,0.4375,0.4933,0.4933,0.4933,0.4933,0.4932,0,0.3263,0.3329,0.3445,0.3495,0.3605,0.3693,0.3831,0.3929,0.4064,0.4165,0.431,0.4419,0.4582,0.4715,0.4751,0.4812,0.4919,0.4771,0.4735,0.4414,0.437,0.475,0.4727,0.4937,0.4936,0.4935,0.4935,0,0.3233,0.3313,0.3412,0.3555,0.3597,0.3682,0.3844,0.3939,0.4081,0.4218,0.4294,0.4503,0.4699,0.4813,0.4993,0.4905,0.4976,0.496,0.4558,0.4473,0.4693,0.4671,0.4871,0.4868,0.4865,0.4863,0.4862,0,0.3252,0.3277,0.3405,0.3456,0.3534,0.3669,0.3745,0.3917,0.3985,0.4248,0.4289,0.4566,0.4694,0.4893,0.4864,0.4899,0.4996,0.4543,0.438,0.4759,0.4704,0.4685,0.4666,0.4026,0.4018,0.4011,0.4005,0,0.3243,0.326,0.3311,0.3386,0.3495,0.3615,0.3732,0.378,0.3976,0.4063,0.4236,0.4389,0.4628,0.4524,0.4579,0.4534,0.4503,0.4401,0.4956,0.4091,0.3972,0.3913,0.3922,0.3944,0.3951,0.3955,0.3958,0.3961,0.3211,0.3209,0.3241,0.3312,0.3405,0.3499,0.3543,0.3644,0.3707,0.3771,0.4015,0.4089,0.4202,0.4111,0.4009,0.3932,0.4217,0.3995,0.4013,0.4039,0.3915,0.3797,0.3712,0.3716,0.372,0.3724,0.3727,0,0.3172,0.3165,0.3165,0.3227,0.3239,0.3385,0.3457,0.3412,0.3388,0.3521,0.3594,0.3361,0.3337,0.3482,0.3265,0.3238,0.3177,0.3111,0.2997,0.3063,0.312,0.2943,0.2486,0.2481,0.2477,0.2473,0,0,0.3123,0.3097,0.3039,0.3022,0.3081,0.3068,0.3092,0.2994,0.2989,0.2898,0.2894,0.3168,0.3364,0.2856,0.2801,0.261,0.2805,0.2513,0.352,0.3453,0.3504,0.3657,0.3465,0,0,0,0,0]},{"header":{"parameterUnit":"m.s-1","parameterCategory":2,"la1":30.2991,"la2":30.254,"lo1":-89.0895,"lo2":-89.0444,"dy":0.0017,"dx":0.0017,"nx":28,"ny":28,"refTime":"2024-07-06T03:00:00:Z","depth":"2","parameterNumber":3,"parameterNumberName":"V-component_of_CURRENTS"},"data":[0,0,0,0,0,0,0,0,0,0,0,0,0,0,0,0,0,0,0,0,0,0,0,0,0,0,0,0,0,0,0,0,0,0,0,0,0,0,0,0,0,0,0,0,0,0,0,0,0,0,0,0,0,0,0,0,0,0,0.0048,0.0047,0,-0.0003,-0.0004,-0.0004,-0.0056,-0.0056,-0.0056,-0.0057,-0.0132,-0.0134,-0.0135,0,0,0,0,0,0,0,0,0,0,0,0,0,0.0054,0.0054,0.0048,0.0047,0.0047,-0.0003,-0.0004,-0.0005,-0.0056,-0.0056,-0.0057,-0.0057,-0.0131,-0.0133,-0.0135,0,0,0,0,0,0,0,0,0,0,0,0,0,0.0029,0.0054,0.0048,0.0018,0.0015,-0.0002,-0.0004,-0.0005,-0.0055,-0.0056,-0.0057,-0.0057,-0.0131,-0.0133,-0.0136,-0.0138,0,0,-0.0143,-0.0144,0,0,0,0,0,0,0,0,0.0031,0.0029,0.0023,0.002,0.0017,-0.0021,-0.0029,-0.005,-0.0055,-0.0032,-0.0057,-0.0058,-0.0095,-0.01,-0.0112,-0.0142,-0.0145,-0.0143,-0.0145,-0.0146,-0.0146,0,0,0,0,0,0,0,0.0033,0.0031,0.0025,0.0022,0.0019,-0.0009,-0.0013,-0.0033,-0.0062,-0.0034,-0.0037,-0.0038,-0.0097,-0.011,-0.0114,-0.0146,-0.0143,-0.0145,-0.0147,-0.0148,-0.0192,-0.0192,0,0,0,0,0,0,0.0048,0.0033,0.0026,0.0023,0.0026,-0.0008,-0.0013,-0.0011,-0.0061,-0.0069,-0.0037,-0.004,-0.0105,-0.0111,-0.0117,-0.0108,-0.0146,-0.0148,-0.0149,-0.0193,-0.0192,-0.0192,0,0,0,0,0,0,0.0049,0.0048,0.0028,0.0029,0.0025,-0.0007,-0.0005,-0.0011,-0.002,-0.0063,-0.0071,-0.0038,-0.0106,-0.0114,-0.0128,-0.0112,-0.0149,-0.0151,-0.0193,-0.0192,-0.0192,-0.0099,0,0,0,0,0,0,0.0049,0.0049,0.0054,0.003,0.0026,0.0031,-0.0004,-0.0012,-0.0018,-0.0022,-0.0066,-0.0074,-0.0107,-0.0124,-0.013,-0.0116,-0.0153,-0.0193,-0.0193,-0.0192,-0.0103,-0.0096,-0.009,0,0,0,0,0,0.0049,0.0065,0.0055,0.0054,0.0034,0.0033,0.0028,0.0,-0.0017,-0.0012,-0.0044,-0.0073,-0.0126,-0.0125,-0.0133,-0.0119,-0.0193,-0.0193,-0.0192,-0.0106,-0.0097,-0.009,0,0,0,0,0,0,0.0067,0.0061,0.0049,0.0061,0.0053,0.0026,0.0028,0.001,-0.0012,-0.0019,-0.0063,-0.0073,-0.0084,-0.0114,-0.0112,-0.0133,-0.0166,-0.0167,-0.0098,-0.0091,-0.0084,-0.0049,-0.0155,0,0,0,0,0,0.0076,0.0089,0.0074,0.0085,0.0083,0.0057,0.0052,0.0035,0.0014,0.0003,-0.0026,-0.0062,-0.0088,-0.0098,-0.0128,-0.013,-0.0161,-0.013,-0.0124,-0.0118,-0.0097,-0.0121,-0.0114,-0.019,-0.019,-0.019,0,0,0.0086,0.0086,0.0091,0.009,0.0079,0.0091,0.0052,0.0052,0.0062,-0.0001,0.0001,-0.004,-0.0085,-0.0093,-0.01,-0.0114,-0.0118,-0.0117,-0.0112,-0.0093,-0.012,-0.0112,-0.0105,-0.019,-0.019,-0.019,0,0,0.0123,0.0113,0.0138,0.0137,0.0132,0.0119,0.0125,0.0104,0.0093,0.0089,0.0043,0.0019,-0.0019,-0.0045,-0.0064,-0.0039,-0.0086,-0.0055,0.0013,-0.0011,-0.0005,0.0001,-0.0045,-0.0045,-0.0048,-0.0047,-0.0047,0,0.0133,0.0164,0.0144,0.0168,0.0178,0.0139,0.017,0.0154,0.0131,0.0136,0.0101,0.0052,0.0006,0.0007,0.001,-0.0021,-0.0048,-0.0009,-0.0,0.0005,0.0009,-0.004,-0.004,-0.0043,-0.0043,-0.0044,-0.0044,0,0.0187,0.0211,0.0227,0.0248,0.0254,0.0273,0.0257,0.0258,0.0236,0.0221,0.0212,0.0147,0.0123,0.0096,0.0061,0.0071,0.0036,0.0009,-0.0012,0.0023,-0.0032,-0.0034,-0.0036,-0.0038,-0.0039,-0.004,0,0,0.0216,0.0259,0.0265,0.0301,0.0301,0.0322,0.0337,0.0353,0.0378,0.0333,0.0362,0.0297,0.026,0.0236,0.0181,0.0159,0.0145,0.0108,0.0104,0.0076,0.0082,0.0037,0.0029,0.0126,0.0127,0.0127,0.0025,0,0.0267,0.0342,0.0343,0.0417,0.0457,0.0437,0.0465,0.047,0.0453,0.0466,0.0402,0.0401,0.0314,0.0309,0.0269,0.0186,0.0148,0.0174,0.0041,0.0037,0.0004,0.0029,0.0059,-0.0029,0.0023,0.0023,0.0023,0,0.0322,0.0372,0.0454,0.0528,0.0544,0.058,0.0629,0.0647,0.0642,0.0627,0.0602,0.0549,0.0511,0.043,0.0304,0.0329,0.0217,0.0138,0.0132,0.0064,-0.001,-0.0054,-0.0035,0.0019,0.0019,0.0019,0.002,0,0.0375,0.0455,0.0533,0.0553,0.0616,0.0661,0.0695,0.0706,0.0747,0.0741,0.077,0.0687,0.0675,0.0533,0.0359,0.0339,0.0215,0.0159,0.0005,-0.0001,-0.0014,-0.0021,0.0068,0.0068,0.0068,0.0069,0.0069,0,0.0438,0.0502,0.0574,0.0618,0.0727,0.0742,0.0843,0.0852,0.0889,0.0974,0.0869,0.0915,0.0708,0.0608,0.0414,0.0213,0.0249,0.0028,-0.0019,0.0015,0.0011,0.0026,0.0022,0.0065,0.0066,0.0066,0.0067,0,0.0489,0.0526,0.0628,0.0719,0.0758,0.0839,0.0958,0.103,0.1044,0.1152,0.1169,0.1102,0.0984,0.0744,0.052,0.0307,0.0102,0.0014,0.0055,0.0015,-0.0122,-0.012,-0.0171,-0.0173,-0.0175,-0.0177,-0.0178,0,0.0525,0.0581,0.0706,0.0779,0.0831,0.0953,0.1044,0.1102,0.1201,0.1287,0.1366,0.1282,0.1255,0.0876,0.0503,0.0144,0.0108,-0.0085,-0.0125,-0.0099,-0.0141,-0.0136,-0.0131,-0.0121,-0.0122,-0.0122,-0.0123,0,0.06,0.0638,0.0728,0.0873,0.0991,0.1131,0.1281,0.1384,0.1484,0.1581,0.1703,0.1685,0.1335,0.0988,0.0471,0.0224,-0.003,-0.011,-0.0069,-0.0063,-0.006,-0.0098,-0.0094,-0.0128,-0.0128,-0.0127,-0.0127,-0.0127,0.0657,0.0733,0.0849,0.0991,0.1127,0.1313,0.1459,0.163,0.1815,0.1972,0.1931,0.1892,0.148,0.0823,0.04,-0.0062,-0.0051,-0.0228,-0.0222,-0.0217,-0.019,-0.019,-0.028,-0.028,-0.0281,-0.0281,-0.0281,0,0.0737,0.0824,0.096,0.1146,0.1311,0.1372,0.1622,0.1771,0.2023,0.2112,0.2181,0.1766,0.1364,0.09,0.0213,-0.0203,-0.0226,-0.0327,-0.0259,-0.0251,-0.0245,-0.0217,-0.0316,-0.0317,-0.0318,-0.0319,0,0,0.0777,0.0926,0.0999,0.1278,0.1415,0.1659,0.1816,0.2014,0.2133,0.2223,0.2179,0.2048,0.1491,0.0987,0.0443,0.007,0.0002,-0.001,0.0058,0.0209,0.0221,-0.0153,-0.0098,0,0,0,0,0]}],[{"header":{"parameterUnit":"m.s-1","parameterCategory":2,"la1":30.2991,"la2":30.254,"lo1":-89.0895,"lo2":-89.0444,"dy":0.0017,"dx":0.0017,"nx":28,"ny":28,"refTime":"2024-07-06T03:00:00:Z","depth":"4","parameterNumber":2,"parameterNumberName":"U-component_of_CURRENTS"},"data":[0,0,0,0,0,0,0,0,0,0,0,0,0,0,0,0,0,0,0,0,0,0,0,0,0,0,0,0,0,0,0,0,0,0,0,0,0,0,0,0,0,0,0,0,0,0,0,0,0,0,0,0,0,0,0,0,0,0,0.1889,0.189,0,0.1933,0.1933,0.1932,0.1967,0.1968,0.1969,0.197,0.2021,0.2022,0.2022,0,0,0,0,0,0,0,0,0,0,0,0,0,0.1771,0.1773,0.1889,0.189,0.1891,0.1933,0.1933,0.1932,0.1967,0.1968,0.1969,0.197,0.2021,0.2022,0.2022,0,0,0,0,0,0,0,0,0,0,0,0,0,0.1812,0.1774,0.1889,0.1919,0.1923,0.1933,0.1933,0.1932,0.1966,0.1968,0.1969,0.1971,0.2021,0.2022,0.2022,0.1995,0,0,0.2024,0.2025,0,0,0,0,0,0,0,0,0.181,0.1816,0.1913,0.1917,0.1921,0.1953,0.1911,0.1956,0.1966,0.1942,0.197,0.1972,0.2003,0.2005,0.1999,0.1997,0.2,0.2024,0.2025,0.2025,0.2025,0,0,0,0,0,0,0,0.1807,0.1814,0.1898,0.1915,0.192,0.1909,0.1917,0.1918,0.1957,0.1944,0.1948,0.1965,0.2004,0.1998,0.2001,0.2,0.2024,0.2025,0.2025,0.2025,0.2137,0.2139,0,0,0,0,0,0,0.1819,0.1811,0.1897,0.19,0.1877,0.1911,0.1919,0.1935,0.1957,0.1964,0.1964,0.1967,0.1996,0.2,0.2003,0.2093,0.2025,0.2025,0.2026,0.2134,0.2137,0.214,0,0,0,0,0,0,0.1816,0.1826,0.1896,0.1863,0.1872,0.1913,0.1929,0.1935,0.1978,0.1974,0.198,0.2008,0.1998,0.2002,0.2051,0.2091,0.2026,0.2026,0.2131,0.2135,0.2139,0.2196,0,0,0,0,0,0,0.1813,0.1825,0.1855,0.1864,0.1875,0.1927,0.1929,0.1935,0.1986,0.1991,0.2012,0.2016,0.1999,0.205,0.2052,0.209,0.2027,0.2128,0.2133,0.2137,0.219,0.2201,0.221,0,0,0,0,0,0.1808,0.1833,0.1856,0.1868,0.191,0.1929,0.1933,0.1961,0.1988,0.2005,0.2033,0.2018,0.2083,0.2053,0.2054,0.2093,0.2125,0.2131,0.2137,0.2186,0.2199,0.221,0,0,0,0,0,0,0.1794,0.184,0.1865,0.1904,0.1932,0.1938,0.1965,0.1988,0.2022,0.2044,0.204,0.2045,0.2109,0.2098,0.2065,0.2145,0.2106,0.2112,0.2143,0.2155,0.2164,0.2185,0.2027,0,0,0,0,0,0.1808,0.1843,0.1878,0.1912,0.1933,0.196,0.1981,0.2004,0.2029,0.2048,0.2065,0.2093,0.2124,0.2139,0.2158,0.2189,0.2201,0.2222,0.2232,0.224,0.2261,0.2328,0.2346,0.2159,0.2159,0.2159,0,0,0.181,0.1844,0.1863,0.1913,0.1937,0.1968,0.1976,0.202,0.2053,0.2047,0.2106,0.2132,0.2145,0.2189,0.2216,0.2187,0.2296,0.2247,0.2254,0.2271,0.2336,0.2354,0.237,0.2163,0.2162,0.2162,0,0,0.1812,0.1866,0.1891,0.1924,0.1982,0.2001,0.2029,0.2067,0.2096,0.215,0.2166,0.2218,0.2254,0.2266,0.2277,0.2354,0.2354,0.2375,0.2428,0.2492,0.2508,0.2522,0.2537,0.2552,0.2369,0.2369,0.2369,0,0.182,0.1856,0.19,0.1934,0.1969,0.2025,0.2056,0.2089,0.2141,0.2181,0.2185,0.2281,0.2287,0.2345,0.2381,0.2373,0.2408,0.2374,0.2504,0.2518,0.2531,0.2544,0.256,0.2373,0.2372,0.2372,0.2372,0,0.1831,0.1876,0.1895,0.1962,0.2003,0.2042,0.21,0.2158,0.2214,0.2253,0.2346,0.2357,0.242,0.2429,0.2431,0.2532,0.2525,0.2514,0.2468,0.2553,0.2561,0.2577,0.2378,0.2376,0.2375,0.2375,0,0,0.1797,0.1886,0.1898,0.1931,0.2026,0.2052,0.2137,0.2217,0.2289,0.235,0.2429,0.2488,0.2531,0.255,0.2557,0.2605,0.2713,0.2618,0.2619,0.2622,0.285,0.2696,0.2697,0.2745,0.2749,0.2752,0.2808,0,0.1794,0.1849,0.1904,0.1966,0.1997,0.2091,0.2165,0.2258,0.2337,0.2429,0.2482,0.2564,0.2565,0.2611,0.2668,0.2724,0.2764,0.2698,0.2778,0.2779,0.2623,0.2713,0.2764,0.282,0.2823,0.2826,0.2828,0,0.1788,0.1821,0.1883,0.1976,0.2004,0.207,0.2211,0.2283,0.2435,0.2504,0.2608,0.266,0.2766,0.2739,0.2873,0.2848,0.287,0.2883,0.2885,0.2736,0.2655,0.2725,0.2855,0.2853,0.2851,0.2849,0.2847,0,0.1724,0.1809,0.1859,0.1892,0.2012,0.2083,0.2169,0.2324,0.2398,0.257,0.2651,0.2773,0.286,0.2923,0.2986,0.2959,0.311,0.3055,0.2916,0.2903,0.2996,0.2981,0.3136,0.3136,0.3136,0.3136,0.3136,0,0.1688,0.1721,0.1846,0.1866,0.1947,0.2063,0.2174,0.2289,0.2453,0.2548,0.2698,0.2774,0.293,0.3024,0.3037,0.3041,0.3158,0.2948,0.2925,0.3014,0.3001,0.3004,0.2988,0.3138,0.3137,0.3137,0.3137,0,0.1597,0.1686,0.173,0.1862,0.1918,0.1981,0.2156,0.2224,0.2425,0.2552,0.2618,0.2836,0.2981,0.3075,0.3189,0.31,0.3105,0.3064,0.3158,0.3135,0.2828,0.2815,0.2897,0.2892,0.2888,0.2885,0.2882,0,0.1541,0.1562,0.1699,0.1735,0.18,0.1915,0.199,0.219,0.2264,0.2551,0.259,0.2819,0.2936,0.2973,0.3091,0.3107,0.3066,0.3023,0.2919,0.2844,0.2813,0.2806,0.2798,0.2876,0.2875,0.2874,0.2873,0,0.1398,0.1479,0.1515,0.1616,0.1696,0.1756,0.1888,0.193,0.2168,0.2364,0.2514,0.261,0.2776,0.2877,0.294,0.2929,0.3028,0.2981,0.2987,0.2888,0.282,0.2791,0.2788,0.286,0.2861,0.2863,0.2864,0,0.1289,0.128,0.1376,0.1464,0.1543,0.1583,0.1667,0.1782,0.1899,0.2228,0.2271,0.2527,0.2749,0.2786,0.2827,0.2841,0.2776,0.2641,0.2663,0.268,0.2587,0.2466,0.2398,0,0,0,0,0,0.1184,0.118,0.1215,0.1288,0.1371,0.1445,0.159,0.1688,0.1922,0.1968,0.2124,0.2266,0.2404,0.2534,0.2505,0.2704,0.2762,0.2652,0.261,0.2785,0.28,0.2713,0,0,0,0,0,0,0.1099,0.1127,0.1156,0.1154,0.1181,0.1252,0.1338,0.1497,0.1547,0.1808,0.1906,0.2109,0.2283,0.241,0.2461,0.2495,0.2414,0.2812,0.2805,0.2776,0.279,0.2802,0.2719,0,0,0,0,0]},{"header":{"parameterUnit":"m.s-1","parameterCategory":2,"la1":30.2991,"la2":30.254,"lo1":-89.0895,"lo2":-89.0444,"dy":0.0017,"dx":0.0017,"nx":28,"ny":28,"refTime":"2024-07-06T03:00:00:Z","depth":"4","parameterNumber":3,"parameterNumberName":"V-component_of_CURRENTS"},"data":[0,0,0,0,0,0,0,0,0,0,0,0,0,0,0,0,0,0,0,0,0,0,0,0,0,0,0,0,0,0,0,0,0,0,0,0,0,0,0,0,0,0,0,0,0,0,0,0,0,0,0,0,0,0,0,0,0,0,0.0069,0.0069,0,0.0039,0.0038,0.0038,0.0006,0.0006,0.0005,0.0005,-0.0042,-0.0043,-0.0044,0,0,0,0,0,0,0,0,0,0,0,0,0,0.0067,0.0067,0.0069,0.0069,0.0069,0.0039,0.0038,0.0038,0.0006,0.0006,0.0005,0.0005,-0.0041,-0.0043,-0.0044,0,0,0,0,0,0,0,0,0,0,0,0,0,0.0054,0.0067,0.0069,0.0051,0.0049,0.0039,0.0038,0.0038,0.0006,0.0006,0.0005,0.0005,-0.0041,-0.0043,-0.0044,-0.0045,0,0,-0.0049,-0.0049,0,0,0,0,0,0,0,0,0.0055,0.0054,0.0054,0.0052,0.005,0.0027,0.002,0.001,0.0006,0.002,0.0005,0.0005,-0.0019,-0.0022,-0.0029,-0.0047,-0.0049,-0.0049,-0.005,-0.005,-0.0051,0,0,0,0,0,0,0,0.0056,0.0055,0.0055,0.0053,0.0051,0.0033,0.0031,0.0018,0.0002,0.0019,0.0017,0.0017,-0.002,-0.0028,-0.0031,-0.005,-0.0049,-0.005,-0.0051,-0.0052,-0.0079,-0.0079,0,0,0,0,0,0,0.0066,0.0056,0.0056,0.0054,0.0054,0.0034,0.0031,0.0033,0.0002,-0.0002,0.0017,0.0016,-0.0025,-0.0029,-0.0032,-0.0025,-0.005,-0.0052,-0.0053,-0.0079,-0.0079,-0.0079,0,0,0,0,0,0,0.0066,0.0066,0.0057,0.0056,0.0054,0.0035,0.0037,0.0033,0.0029,0.0001,-0.0004,0.0019,-0.0025,-0.003,-0.0037,-0.0028,-0.0052,-0.0054,-0.0079,-0.0079,-0.0079,-0.0018,0,0,0,0,0,0,0.0066,0.0066,0.007,0.0057,0.0054,0.0062,0.0038,0.0033,0.0031,0.0028,0.0001,-0.0004,-0.0026,-0.0035,-0.0038,-0.003,-0.0055,-0.008,-0.0079,-0.0079,-0.002,-0.0015,-0.0012,0,0,0,0,0,0.0066,0.0078,0.0071,0.0071,0.0061,0.0063,0.006,0.0043,0.0031,0.0037,0.0016,-0.0003,-0.0036,-0.0035,-0.004,-0.0032,-0.008,-0.0079,-0.0079,-0.0022,-0.0016,-0.0012,0,0,0,0,0,0,0.0078,0.0076,0.0068,0.0078,0.0074,0.0058,0.0062,0.005,0.0038,0.0034,0.0004,-0.0002,-0.0007,-0.0028,-0.0026,-0.0041,-0.0063,-0.0064,-0.0018,-0.0013,-0.0009,0.0005,-0.0056,0,0,0,0,0,0.0084,0.0095,0.0086,0.0095,0.0095,0.0079,0.0077,0.0067,0.0055,0.0049,0.0032,0.0009,-0.0009,-0.0017,-0.0035,-0.0037,-0.0077,-0.0038,-0.0034,-0.003,-0.0024,-0.0083,-0.0083,-0.0078,-0.0078,-0.0078,0,0,0.0091,0.0092,0.0098,0.0099,0.0093,0.0103,0.0077,0.008,0.0087,0.0046,0.0051,0.0026,-0.0007,-0.0012,-0.0016,-0.0027,-0.0053,-0.003,-0.0026,-0.0022,-0.0083,-0.0083,-0.0084,-0.0077,-0.0077,-0.0077,0,0,0.0118,0.0113,0.0131,0.0132,0.0131,0.0124,0.0129,0.0119,0.0112,0.0113,0.0081,0.0063,0.0044,0.0019,0.0004,0.002,-0.0029,0.0013,0.0048,-0.0009,-0.001,-0.0012,-0.0062,-0.0068,0.0016,0.0016,0.0016,0,0.0125,0.0146,0.0137,0.0153,0.016,0.0138,0.0158,0.0149,0.0138,0.0136,0.0123,0.0081,0.0057,0.0038,0.0046,0.003,-0.0009,0.0034,-0.0004,-0.0006,-0.0008,-0.006,-0.0067,0.0019,0.0019,0.0018,0.0018,0,0.0161,0.0178,0.019,0.0205,0.0212,0.0226,0.0216,0.0219,0.0208,0.0194,0.0178,0.0136,0.0111,0.0098,0.0082,0.0056,0.0032,0.0009,-0.0014,-0.0005,-0.006,-0.0069,0.0023,0.0022,0.0021,0.002,0,0,0.0176,0.021,0.0213,0.0239,0.0241,0.0258,0.0266,0.0271,0.0282,0.0251,0.0253,0.0213,0.0184,0.0163,0.0127,0.0083,0.0036,0.005,0.0045,0.0005,-0.0088,-0.0081,-0.0091,0.0005,0.0003,0.0002,-0.0119,0,0.0206,0.0259,0.026,0.0312,0.0342,0.0329,0.0347,0.0345,0.0331,0.0327,0.0265,0.0255,0.0208,0.0201,0.0146,0.007,0.0015,0.0072,-0.0095,-0.0099,-0.0091,-0.01,-0.0002,-0.0126,-0.0128,-0.0129,-0.0131,0,0.0236,0.0275,0.0332,0.0387,0.0397,0.0424,0.0452,0.0465,0.044,0.0424,0.0381,0.0331,0.0271,0.0228,0.0079,0.0118,0.0024,-0.0047,-0.0054,-0.0074,-0.011,-0.0139,-0.0148,-0.0147,-0.0145,-0.0144,-0.0143,0,0.0269,0.0325,0.0381,0.0396,0.0445,0.0474,0.0504,0.0501,0.0531,0.049,0.0496,0.0391,0.0361,0.0218,0.0074,0.0075,-0.0098,-0.0122,-0.0215,-0.0216,-0.0213,-0.021,-0.0241,-0.0241,-0.024,-0.024,-0.024,0,0.0302,0.035,0.041,0.0442,0.0525,0.0536,0.0611,0.0611,0.0625,0.0664,0.0559,0.0549,0.036,0.024,0.0085,-0.0087,-0.01,-0.0209,-0.0247,-0.0184,-0.0177,-0.0219,-0.0215,-0.0245,-0.0244,-0.0243,-0.0242,0,0.0337,0.0363,0.0445,0.0517,0.0547,0.0615,0.0713,0.0766,0.0756,0.0798,0.0793,0.0677,0.0515,0.0309,0.008,-0.0047,-0.023,-0.0295,-0.0205,-0.0236,-0.0315,-0.0307,-0.0408,-0.0409,-0.041,-0.041,-0.0411,0,0.0363,0.0406,0.0512,0.0571,0.0614,0.0716,0.0792,0.0834,0.089,0.0876,0.09,0.0761,0.0653,0.0337,0.0105,-0.0209,-0.0252,-0.0351,-0.0339,-0.0306,-0.0333,-0.0323,-0.0314,-0.0412,-0.0412,-0.0412,-0.0412,0,0.0423,0.0458,0.053,0.0652,0.075,0.0858,0.0963,0.1014,0.1053,0.1047,0.0993,0.0817,0.0631,0.0358,0.0114,-0.0112,-0.0289,-0.0359,-0.0359,-0.0349,-0.0312,-0.0336,-0.0326,-0.0415,-0.0414,-0.0414,-0.0414,0,0.0475,0.0537,0.0627,0.0739,0.0853,0.0958,0.1015,0.108,0.1132,0.1109,0.1088,0.0867,0.0742,0.0408,0.018,-0.0041,-0.0098,-0.0168,-0.0179,-0.018,-0.008,0.0002,-0.0035,0,0,0,0,0,0.0523,0.0593,0.0702,0.0822,0.0934,0.0999,0.1107,0.115,0.1185,0.1168,0.1132,0.0952,0.0616,0.0464,0.0246,0.0151,-0.0149,-0.0114,-0.0238,-0.0427,-0.0425,-0.0347,0,0,0,0,0,0,0.0549,0.0657,0.0713,0.0867,0.0951,0.1085,0.1154,0.1182,0.1168,0.1156,0.0983,0.0898,0.057,0.0743,0.0242,0.0173,0.0064,-0.0271,-0.0276,-0.0429,-0.0426,-0.0424,-0.0343,0,0,0,0,0]}]]